Location: Kelowna
(49.8880°N, 119.4960°W)
Time: 12:18:50
(UTC-07:00)

ITAMSAT 1 - Visible Passes

Search period start: 22 April 2024 00:00
Search period end: 02 May 2024 00:00
Orbit: 783 x 795 km, 98.8° (Epoch: 22 April)

Date Brightness Start Highest point End Pass type
(mag) Time Alt. Az. Time Alt. Az. Time Alt. Az.
22 Apr 9.1 22:02:08 10° SSW 22:06:52 35° W 22:11:39 10° NNW visible
23 Apr 8.2 21:31:41 10° S 21:36:51 60° WSW 21:42:02 10° NNW visible
24 Apr 7.7 21:01:43 10° SSE 21:06:57 80° ENE 21:12:12 10° NNW visible
24 Apr 10.1 22:43:40 10° SW 22:47:01 17° W 22:50:22 10° NW visible
25 Apr 9.3 22:12:17 10° SSW 22:16:48 29° W 22:21:21 10° NW visible
26 Apr 8.5 21:41:40 10° S 21:46:44 50° W 21:51:50 10° NNW visible
27 Apr 7.7 21:11:33 10° SSE 21:16:47 87° WSW 21:22:04 10° NNW visible
27 Apr 10.2 22:54:18 10° WSW 22:57:00 14° W 22:59:42 10° NW visible
28 Apr 7.9 20:41:53 10° SE 20:46:58 56° ENE 20:52:06 10° N visible
28 Apr 9.6 22:22:31 10° SSW 22:26:44 25° W 22:31:00 10° NW visible
29 Apr 8.8 21:51:41 10° S 21:56:37 42° W 22:01:35 10° NNW visible
30 Apr 7.9 21:21:25 10° S 21:26:38 74° WSW 21:31:53 10° NNW visible
30 Apr 10.3 23:05:16 10° WSW 23:06:59 11° W 23:08:43 10° WNW visible
01 May 7.8 20:51:36 10° SSE 20:56:47 66° ENE 21:01:58 10° N visible
01 May 9.8 22:32:49 10° SW 22:36:41 21° W 22:40:34 10° NW visible
